Location: ???? ?????????
(44.3677°N, 135.2344°E)
Time: 00:59:29
(UTC+00:00)

Meteor 2-6 Rocket - Pass Details

Date: 19 May 2025
Orbit: 804 x 913 km, 81.3° (Epoch: 13 June)

Event Time Altitude Azimuth Distance (km) Brightness Sun altitude
Exits shadow 12:59:34 30° 190° (S) 1,549 5.1 -20.5°
Maximum altitude 13:02:38 88° 276° (W) 894 4.2 -20.7°
Drops below altitude 10° 13:08:25 10° 10° (N) 2,525 7.4 -21.2°
Sets 13:10:50 0° 11° (N) 3,450 8.2 -21.4°
